| time (UTC) | temp F | wind direction | speed MPH | gust MPH | rain 1hr in | rain 24hr in | rain mn in | humidity % | barometer mb |
| 20260904043952 | 66 | 263 | 3.0 | 11.0 | 0.00 | 0.04 | 0.04 | 68 | 1010.7 |
| 20260904042825 | 65 | 263 | 4.0 | 11.0 | 0.00 | 0.04 | 0.04 | 69 | 1010.7 |
| 20260904042329 | 65 | 263 | 4.0 | 11.0 | 0.00 | 0.04 | 0.04 | 69 | 1010.7 |
| 20260904041817 | 65 | 263 | 4.0 | 10.0 | 0.00 | 0.04 | 0.04 | 69 | 1010.7 |
| 20260904041304 | 65 | 263 | 4.0 | 11.0 | 0.00 | 0.04 | 0.04 | 69 | 1011.6 |
| 20260904040802 | 65 | 263 | 4.0 | 11.0 | 0.00 | 0.04 | 0.04 | 70 | 1011.6 |
| 20260904040258 | 65 | 263 | 4.0 | 11.0 | 0.00 | 0.04 | 0.04 | 70 | 1011.6 |
| 20260904035752 | 65 | 263 | 4.0 | 11.0 | 0.00 | 0.04 | 0.04 | 71 | 1011.5 |
| 20260904035253 | 65 | 263 | 5.0 | 13.0 | 0.00 | 0.04 | 0.04 | 71 | 1011.5 |
| 20260904034739 | 65 | 263 | 5.0 | 13.0 | 0.00 | 0.04 | 0.04 | 72 | 1011.5 |
| 20260904034229 | 65 | 263 | 5.0 | 13.0 | 0.00 | 0.04 | 0.04 | 75 | 1011.7 |
| 20260904033738 | 64 | 263 | 4.0 | 13.0 | 0.00 | 0.04 | 0.04 | 75 | 1011.7 |
| 20260904033231 | 64 | 263 | 3.0 | 12.0 | 0.00 | 0.04 | 0.04 | 78 | 1011.7 |
| 20260904032113 | 62 | 263 | 3.0 | 6.0 | 0.00 | 0.04 | 0.04 | 81 | 1012.3 |
| 20260904031617 | 62 | 263 | 2.0 | 7.0 | 0.00 | 0.04 | 0.04 | 83 | 1012.3 |
| 20260904031058 | 61 | 263 | 2.0 | 7.0 | 0.00 | 0.04 | 0.04 | 84 | 1012.9 |
| 20260904030550 | 60 | 263 | 2.0 | 9.0 | 0.00 | 0.03 | 0.03 | 84 | 1012.9 |
| 20260904030051 | 60 | 263 | 3.0 | 9.0 | 0.00 | 0.03 | 0.03 | 83 | 1012.9 |
| 20260904025543 | 60 | 263 | 3.0 | 13.0 | 0.00 | 0.03 | 0.03 | 82 | 1012.9 |
| 20260904025033 | 60 | 263 | 3.0 | 13.0 | 0.00 | 0.03 | 0.03 | 83 | 1012.9 |
| 20260904024543 | 60 | 263 | 4.0 | 13.0 | 0.00 | 0.03 | 0.03 | 82 | 1012.9 |
| 20260904023417 | 60 | 263 | 4.0 | 11.0 | 0.00 | 0.03 | 0.03 | 84 | 1013.7 |
| 20260904022239 | 59 | 263 | 3.0 | 13.0 | 0.03 | 0.03 | 0.03 | 84 | 1013.9 |
| 20260904021726 | 59 | 263 | 5.0 | 13.0 | 0.04 | 0.03 | 0.03 | 83 | 1013.9 |
| 20260904020606 | 59 | 263 | 2.0 | 11.0 | 0.00 | 0.02 | 0.03 | 79 | 1015.9 |
| 20260904020057 | 59 | 263 | 3.0 | 11.0 | 0.00 | 0.02 | 0.02 | 78 | 1015.9 |
| 20260904015558 | 59 | 263 | 4.0 | 11.0 | 0.00 | 0.02 | 0.02 | 77 | 1014.9 |
| 20260904015102 | 60 | 263 | 4.0 | 11.0 | 0.03 | 0.02 | 0.02 | 77 | 1014.9 |
| 20260904014603 | 60 | 263 | 4.0 | 11.0 | 0.05 | 0.02 | 0.02 | 75 | 1014.9 |
| 20260904014106 | 60 | 263 | 4.0 | 11.0 | 0.14 | 0.02 | 0.02 | 74 | 1015.3 |
| 20260904013547 | 61 | 263 | 4.0 | 10.0 | 0.09 | 0.00 | 0.01 | 72 | 1015.3 |
| 20260904013043 | 61 | 263 | 5.0 | 13.0 | 0.00 | 0.00 | 0.00 | 70 | 1015.3 |
| 20260904012541 | 62 | 263 | 5.0 | 13.0 | 0.00 | 0.00 | 0.00 | 68 | 1015.4 |
| 20260904012043 | 62 | 263 | 6.0 | 17.0 | 0.00 | 0.00 | 0.00 | 66 | 1015.4 |
| 20260904010933 | 63 | 263 | 6.0 | 17.0 | 0.00 | 0.00 | 0.00 | 64 | 1015.4 |
| 20260904010441 | 63 | 263 | 5.0 | 17.0 | 0.00 | 0.00 | 0.00 | 64 | 1015.4 |
| 20260904005926 | 63 | 263 | 5.0 | 14.0 | 0.00 | 0.00 | 0.00 | 64 | 1015.4 |
| 20260904005418 | 63 | 263 | 6.0 | 14.0 | 0.00 | 0.00 | 0.00 | 64 | 1015.9 |
| 20260904004239 | 64 | 263 | 4.0 | 14.0 | 0.00 | 0.00 | 0.00 | 64 | 1016.0 |
| 20260904003749 | 64 | 263 | 5.0 | 14.0 | 0.00 | 0.00 | 0.00 | 64 | 1016.0 |
| 20260904003250 | 64 | 263 | 6.0 | 14.0 | 0.00 | 0.00 | 0.00 | 64 | 1016.0 |
| 20260904002744 | 64 | 263 | 5.0 | 14.0 | 0.00 | 0.00 | 0.00 | 64 | 1016.1 |
| 20260904001611 | 64 | 263 | 4.0 | 12.0 | 0.00 | 0.00 | 0.00 | 63 | 1016.1 |
| 20260904001055 | 64 | 263 | 5.0 | 12.0 | 0.00 | 0.00 | 0.00 | 63 | 1015.9 |
| 20260904000544 | 64 | 263 | 5.0 | 12.0 | 0.00 | 0.00 | 0.00 | 63 | 1015.9 |
| 20260903234747 | 63 | 263 | 3.0 | 11.0 | 0.00 | 0.00 | 0.00 | 64 | 1015.9 |
| 20260903234235 | 63 | 263 | 4.0 | 11.0 | 0.00 | 0.00 | 0.00 | 64 | 1015.9 |
| 20260903233734 | 63 | 263 | 3.0 | 11.0 | 0.00 | 0.00 | 0.00 | 64 | 1015.9 |
| 20260903233221 | 63 | 263 | 3.0 | 9.0 | 0.00 | 0.00 | 0.00 | 66 | 1015.9 |
| 20260903232111 | 61 | 263 | 3.0 | 9.0 | 0.00 | 0.00 | 0.00 | 67 | 1016.2 |
| 20260903231609 | 61 | 263 | 3.0 | 9.0 | 0.00 | 0.00 | 0.00 | 68 | 1016.2 |
| 20260903231053 | 61 | 263 | 3.0 | 9.0 | 0.00 | 0.00 | 0.00 | 68 | 1016.2 |
| 20260903225913 | 60 | 263 | 2.0 | 8.0 | 0.00 | 0.00 | 0.00 | 69 | 1016.2 |
| 20260903225402 | 60 | 263 | 2.0 | 8.0 | 0.00 | 0.00 | 0.00 | 69 | 1016.4 |
| 20260903224909 | 60 | 263 | 2.0 | 6.0 | 0.00 | 0.00 | 0.00 | 69 | 1016.4 |
| 20260903224351 | 60 | 263 | 2.0 | 6.0 | 0.00 | 0.00 | 0.00 | 69 | 1015.9 |
| 20260903223858 | 60 | 263 | 2.0 | 9.0 | 0.00 | 0.00 | 0.00 | 70 | 1015.9 |
| 20260903223341 | 60 | 263 | 2.0 | 9.0 | 0.00 | 0.00 | 0.00 | 70 | 1015.9 |
| 20260903222834 | 60 | 263 | 3.0 | 9.0 | 0.00 | 0.00 | 0.00 | 70 | 1016.3 |
| 20260903222337 | 60 | 263 | 3.0 | 9.0 | 0.00 | 0.00 | 0.00 | 70 | 1016.3 |
| 20260903221150 | 60 | 263 | 2.0 | 9.0 | 0.00 | 0.00 | 0.00 | 70 | 1016.0 |
| 20260903220641 | 59 | 263 | 2.0 | 6.0 | 0.00 | 0.00 | 0.00 | 71 | 1016.0 |
| 20260903215521 | 59 | 263 | 2.0 | 6.0 | 0.00 | 0.00 | 0.00 | 72 | 1016.0 |
| 20260903215027 | 58 | 263 | 2.0 | 6.0 | 0.00 | 0.00 | 0.00 | 72 | 1016.0 |
| 20260903214529 | 58 | 263 | 2.0 | 5.0 | 0.00 | 0.00 | 0.00 | 72 | 1016.0 |
| 20260903214010 | 58 | 263 | 2.0 | 6.0 | 0.00 | 0.00 | 0.00 | 73 | 1015.6 |
| 20260903213455 | 58 | 263 | 2.0 | 6.0 | 0.00 | 0.00 | 0.00 | 73 | 1015.6 |
| 20260903212957 | 58 | 263 | 2.0 | 6.0 | 0.00 | 0.00 | 0.00 | 73 | 1015.6 |
| 20260903212455 | 58 | 263 | 2.0 | 6.0 | 0.00 | 0.00 | 0.00 | 74 | 1015.8 |
| 20260903211946 | 58 | 263 | 2.0 | 6.0 | 0.00 | 0.00 | 0.00 | 74 | 1015.8 |
| 20260903211443 | 57 | 263 | 2.0 | 6.0 | 0.00 | 0.00 | 0.00 | 75 | 1015.8 |
| 20260903210933 | 57 | 263 | 2.0 | 8.0 | 0.00 | 0.00 | 0.00 | 75 | 1015.7 |
| 20260903210439 | 57 | 263 | 2.0 | 8.0 | 0.00 | 0.00 | 0.00 | 75 | 1015.7 |
| 20260903205927 | 57 | 263 | 2.0 | 8.0 | 0.00 | 0.00 | 0.00 | 76 | 1015.7 |
| 20260903205413 | 57 | 263 | 2.0 | 8.0 | 0.00 | 0.00 | 0.00 | 76 | 1015.9 |
| 20260903204912 | 57 | 263 | 3.0 | 8.0 | 0.00 | 0.00 | 0.00 | 77 | 1015.9 |
| 20260903203726 | 57 | 263 | 3.0 | 10.0 | 0.00 | 0.00 | 0.00 | 78 | 1016.1 |
| 20260903203234 | 56 | 263 | 3.0 | 10.0 | 0.00 | 0.00 | 0.00 | 79 | 1016.1 |
| 20260903202103 | 56 | 263 | 3.0 | 10.0 | 0.00 | 0.00 | 0.00 | 80 | 1016.2 |
| 20260903200930 | 56 | 263 | 3.0 | 10.0 | 0.00 | 0.00 | 0.00 | 82 | 1016.5 |
| 20260903200411 | 56 | 263 | 3.0 | 10.0 | 0.00 | 0.00 | 0.00 | 82 | 1016.5 |
| 20260903195913 | 56 | 263 | 3.0 | 9.0 | 0.00 | 0.00 | 0.00 | 83 | 1016.5 |
| 20260903195410 | 55 | 263 | 3.0 | 9.0 | 0.00 | 0.00 | 0.00 | 84 | 1016.5 |
| 20260903194913 | 55 | 263 | 3.0 | 9.0 | 0.00 | 0.00 | 0.00 | 84 | 1016.5 |
| 20260903194423 | 55 | 263 | 3.0 | 9.0 | 0.00 | 0.00 | 0.00 | 84 | 1016.5 |
| 20260903193309 | 55 | 263 | 2.0 | 4.0 | 0.00 | 0.00 | 0.00 | 85 | 1017.0 |
| 20260903192804 | 54 | 263 | 2.0 | 4.0 | 0.00 | 0.00 | 0.00 | 85 | 1017.0 |
| 20260903192258 | 54 | 263 | 1.0 | 4.0 | 0.00 | 0.00 | 0.00 | 85 | 1017.0 |
| 20260903191807 | 54 | 263 | 1.0 | 4.0 | 0.00 | 0.00 | 0.00 | 85 | 1017.0 |
| 20260903191303 | 54 | 263 | 1.0 | 4.0 | 0.00 | 0.00 | 0.00 | 85 | 1016.8 |
| 20260903190749 | 54 | 263 | 1.0 | 4.0 | 0.00 | 0.00 | 0.00 | 85 | 1016.8 |
| 20260903190241 | 54 | 263 | 1.0 | 5.0 | 0.00 | 0.00 | 0.00 | 85 | 1016.8 |
| 20260903184500 | 53 | 263 | 1.0 | 4.0 | 0.00 | 0.00 | 0.00 | 85 | 1016.5 |
| 20260903183948 | 53 | 263 | 1.0 | 3.0 | 0.00 | 0.00 | 0.00 | 84 | 1016.8 |
| 20260903183428 | 53 | 263 | 1.0 | 4.0 | 0.00 | 0.00 | 0.00 | 84 | 1016.8 |
| 20260903182927 | 53 | 263 | 1.0 | 4.0 | 0.00 | 0.00 | 0.00 | 84 | 1016.8 |
| 20260903182414 | 53 | 263 | 1.0 | 4.0 | 0.00 | 0.00 | 0.00 | 84 | 1017.4 |
| 20260903181908 | 53 | 263 | 1.0 | 4.0 | 0.00 | 0.00 | 0.00 | 83 | 1017.4 |
| 20260903181402 | 53 | 263 | 0.0 | 2.0 | 0.00 | 0.00 | 0.00 | 83 | 1017.9 |
| 20260903180844 | 53 | 263 | 0.0 | 0.0 | 0.00 | 0.00 | 0.00 | 83 | 1017.9 |
| 20260903180348 | 53 | 263 | 0.0 | 0.0 | 0.00 | 0.00 | 0.00 | 82 | 1017.9 |
| 20260903175841 | 54 | 263 | 0.0 | 0.0 | 0.00 | 0.00 | 0.00 | 82 | 1017.9 |
| 20260903175335 | 54 | 263 | 0.0 | 4.0 | 0.00 | 0.00 | 0.00 | 82 | 1017.9 |
| 20260903174832 | 54 | 263 | 1.0 | 5.0 | 0.00 | 0.00 | 0.00 | 82 | 1017.9 |
| 20260903174329 | 54 | 263 | 1.0 | 5.0 | 0.00 | 0.00 | 0.00 | 82 | 1018.1 |
| 20260903173826 | 54 | 263 | 1.0 | 5.0 | 0.00 | 0.00 | 0.00 | 82 | 1018.1 |
| 20260903173334 | 54 | 263 | 1.0 | 5.0 | 0.00 | 0.00 | 0.00 | 82 | 1018.1 |
| 20260903172826 | 54 | 263 | 1.0 | 4.0 | 0.00 | 0.00 | 0.00 | 81 | 1018.6 |
| 20260903172309 | 54 | 263 | 2.0 | 4.0 | 0.00 | 0.00 | 0.00 | 81 | 1018.6 |
| 20260903171812 | 54 | 263 | 2.0 | 4.0 | 0.00 | 0.00 | 0.00 | 81 | 1018.6 |
| 20260903171304 | 54 | 263 | 1.0 | 4.0 | 0.00 | 0.00 | 0.00 | 80 | 1018.4 |
| 20260903170744 | 54 | 263 | 1.0 | 2.0 | 0.00 | 0.00 | 0.00 | 79 | 1018.4 |
| 20260903170227 | 54 | 263 | 0.0 | 2.0 | 0.00 | 0.00 | 0.00 | 79 | 1018.4 |
| 20260903165042 | 54 | 263 | 0.0 | 1.0 | 0.00 | 0.00 | 0.00 | 78 | 1018.5 |
| 20260903164533 | 54 | 263 | 0.0 | 0.0 | 0.00 | 0.00 | 0.00 | 78 | 1018.5 |
| 20260903164043 | 54 | 263 | 0.0 | 0.0 | 0.00 | 0.00 | 0.00 | 78 | 1019.0 |
| 20260903163542 | 54 | 263 | 0.0 | 0.0 | 0.00 | 0.00 | 0.00 | 78 | 1019.0 |
| 20260903163046 | 54 | 263 | 0.0 | 0.0 | 0.00 | 0.00 | 0.00 | 78 | 1019.0 |
| 20260903162531 | 54 | 263 | 0.0 | 0.0 | 0.00 | 0.00 | 0.00 | 78 | 1018.9 |
| 20260903162013 | 54 | 263 | 0.0 | 0.0 | 0.00 | 0.00 | 0.00 | 78 | 1018.9 |
| 20260903161500 | 54 | 263 | 0.0 | 0.0 | 0.00 | 0.00 | 0.00 | 78 | 1018.9 |
| 20260903160940 | 54 | 263 | 1.0 | 3.0 | 0.00 | 0.00 | 0.00 | 78 | 1018.8 |
| 20260903160433 | 54 | 263 | 1.0 | 3.0 | 0.00 | 0.00 | 0.00 | 78 | 1018.8 |
| 20260903155310 | 53 | 263 | 0.0 | 2.0 | 0.00 | 0.00 | 0.00 | 78 | 1019.1 |
| 20260903154138 | 53 | 263 | 0.0 | 0.0 | 0.00 | 0.00 | 0.00 | 78 | 1019.3 |
| 20260903153635 | 53 | 263 | 0.0 | 0.0 | 0.00 | 0.00 | 0.00 | 78 | 1019.3 |
| 20260903153119 | 53 | 263 | 0.0 | 0.0 | 0.00 | 0.00 | 0.00 | 78 | 1019.3 |
| 20260903152616 | 54 | 263 | 0.0 | 0.0 | 0.00 | 0.00 | 0.00 | 77 | 1019.5 |
| 20260903152117 | 54 | 263 | 0.0 | 0.0 | 0.00 | 0.00 | 0.00 | 77 | 1019.5 |
| 20260903151618 | 54 | 263 | 0.0 | 0.0 | 0.00 | 0.00 | 0.00 | 77 | 1019.5 |
| 20260903145810 | 54 | 263 | 0.0 | 0.0 | 0.00 | 0.00 | 0.00 | 77 | 1019.9 |
| 20260903145305 | 54 | 263 | 0.0 | 0.0 | 0.00 | 0.00 | 0.00 | 77 | 1019.9 |
| 20260903144745 | 54 | 263 | 0.0 | 0.0 | 0.00 | 0.00 | 0.00 | 77 | 1019.9 |
| 20260903143643 | 54 | 263 | 0.0 | 0.0 | 0.00 | 0.00 | 0.00 | 77 | 1020.1 |
| 20260903142505 | 54 | 263 | 0.0 | 0.0 | 0.00 | 0.00 | 0.00 | 77 | 1020.3 |
| 20260903142010 | 54 | 263 | 0.0 | 0.0 | 0.00 | 0.00 | 0.00 | 76 | 1020.3 |
| 20260903140231 | 55 | 263 | 0.0 | 0.0 | 0.00 | 0.00 | 0.00 | 75 | 1020.4 |
| 20260903135728 | 55 | 263 | 0.0 | 0.0 | 0.00 | 0.00 | 0.00 | 75 | 1020.6 |
| 20260903135224 | 55 | 263 | 0.0 | 0.0 | 0.00 | 0.00 | 0.00 | 75 | 1020.6 |
| 20260903134734 | 55 | 263 | 0.0 | 0.0 | 0.00 | 0.00 | 0.00 | 75 | 1020.6 |
| 20260903134243 | 55 | 263 | 0.0 | 0.0 | 0.00 | 0.00 | 0.00 | 75 | 1020.7 |
| 20260903133732 | 55 | 263 | 0.0 | 0.0 | 0.00 | 0.00 | 0.00 | 74 | 1020.7 |
| 20260903133239 | 55 | 263 | 0.0 | 0.0 | 0.00 | 0.00 | 0.00 | 74 | 1020.7 |
| 20260903132742 | 56 | 263 | 0.0 | 0.0 | 0.00 | 0.00 | 0.00 | 74 | 1020.7 |
| 20260903132238 | 56 | 263 | 0.0 | 0.0 | 0.00 | 0.00 | 0.00 | 74 | 1020.7 |
| 20260903131743 | 56 | 263 | 0.0 | 0.0 | 0.00 | 0.00 | 0.00 | 74 | 1020.7 |
| 20260903130630 | 56 | 263 | 0.0 | 0.0 | 0.00 | 0.00 | 0.00 | 74 | 1020.8 |
| 20260903125516 | 56 | 263 | 0.0 | 0.0 | 0.00 | 0.00 | 0.00 | 74 | 1020.9 |
| 20260903125019 | 56 | 263 | 0.0 | 1.0 | 0.00 | 0.00 | 0.00 | 74 | 1020.9 |
| 20260903124526 | 56 | 263 | 0.0 | 0.0 | 0.00 | 0.00 | 0.00 | 74 | 1020.9 |
| 20260903123406 | 56 | 263 | 1.0 | 4.0 | 0.00 | 0.00 | 0.00 | 74 | 1020.9 |
| 20260903122249 | 57 | 263 | 0.0 | 3.0 | 0.00 | 0.00 | 0.00 | 74 | 1021.2 |
| 20260903121749 | 57 | 263 | 0.0 | 0.0 | 0.00 | 0.00 | 0.00 | 74 | 1021.2 |
| 20260903121229 | 57 | 263 | 0.0 | 0.0 | 0.00 | 0.00 | 0.00 | 74 | 1021.2 |
| 20260903120737 | 57 | 263 | 0.0 | 0.0 | 0.00 | 0.00 | 0.00 | 74 | 1021.2 |
| 20260903120243 | 57 | 263 | 0.0 | 0.0 | 0.00 | 0.00 | 0.00 | 74 | 1021.2 |
| 20260903115727 | 57 | 263 | 0.0 | 1.0 | 0.00 | 0.00 | 0.00 | 73 | 1021.2 |
| 20260903115219 | 57 | 263 | 0.0 | 0.0 | 0.00 | 0.00 | 0.00 | 73 | 1021.2 |
| 20260903114722 | 57 | 263 | 0.0 | 0.0 | 0.00 | 0.00 | 0.00 | 73 | 1021.2 |
| 20260903112954 | 57 | 263 | 0.0 | 0.0 | 0.00 | 0.00 | 0.00 | 73 | 1021.2 |
| 20260903111851 | 57 | 263 | 0.0 | 0.0 | 0.00 | 0.00 | 0.00 | 72 | 1021.1 |
| 20260903111340 | 57 | 263 | 0.0 | 0.0 | 0.00 | 0.00 | 0.00 | 72 | 1021.0 |
| 20260903110849 | 57 | 263 | 0.0 | 0.0 | 0.00 | 0.00 | 0.00 | 72 | 1021.0 |
| 20260903110342 | 57 | 263 | 0.0 | 0.0 | 0.00 | 0.00 | 0.00 | 72 | 1021.0 |
| 20260903105845 | 57 | 263 | 0.0 | 0.0 | 0.00 | 0.00 | 0.00 | 72 | 1020.9 |
| 20260903104735 | 57 | 263 | 0.0 | 0.0 | 0.00 | 0.00 | 0.00 | 72 | 1020.9 |
| 20260903104244 | 57 | 263 | 0.0 | 2.0 | 0.00 | 0.00 | 0.00 | 71 | 1020.7 |
| 20260903103123 | 57 | 263 | 0.0 | 0.0 | 0.00 | 0.00 | 0.00 | 71 | 1020.7 |
| 20260903102610 | 57 | 263 | 0.0 | 0.0 | 0.00 | 0.00 | 0.00 | 71 | 1020.6 |
| 20260903102051 | 58 | 263 | 0.0 | 0.0 | 0.00 | 0.00 | 0.00 | 70 | 1020.6 |
| 20260903101557 | 58 | 263 | 0.0 | 0.0 | 0.00 | 0.00 | 0.00 | 70 | 1020.6 |
| 20260903101050 | 58 | 263 | 0.0 | 0.0 | 0.00 | 0.00 | 0.00 | 69 | 1020.4 |
| 20260903100540 | 58 | 263 | 0.0 | 0.0 | 0.00 | 0.00 | 0.00 | 69 | 1020.4 |
| 20260903100044 | 58 | 263 | 0.0 | 1.0 | 0.00 | 0.00 | 0.00 | 69 | 1020.4 |
| 20260903094914 | 58 | 263 | 0.0 | 4.0 | 0.00 | 0.00 | 0.00 | 68 | 1020.2 |
| 20260903094354 | 58 | 263 | 1.0 | 4.0 | 0.00 | 0.00 | 0.00 | 68 | 1020.3 |
| 20260903093838 | 58 | 263 | 1.0 | 5.0 | 0.00 | 0.00 | 0.00 | 68 | 1020.3 |
| 20260903093327 | 58 | 263 | 2.0 | 5.0 | 0.00 | 0.00 | 0.00 | 67 | 1020.3 |
| 20260903092822 | 58 | 263 | 2.0 | 6.0 | 0.00 | 0.00 | 0.00 | 67 | 1020.2 |
| 20260903092314 | 58 | 263 | 2.0 | 6.0 | 0.00 | 0.00 | 0.00 | 67 | 1020.2 |
| 20260903091202 | 58 | 263 | 2.0 | 6.0 | 0.00 | 0.00 | 0.00 | 66 | 1019.9 |
| 20260903090706 | 59 | 263 | 2.0 | 4.0 | 0.00 | 0.00 | 0.00 | 67 | 1019.9 |
| 20260903090147 | 59 | 263 | 1.0 | 4.0 | 0.00 | 0.00 | 0.00 | 67 | 1019.9 |
| 20260903085016 | 59 | 263 | 1.0 | 5.0 | 0.00 | 0.00 | 0.00 | 67 | 1020.0 |
| 20260903084500 | 59 | 263 | 2.0 | 5.0 | 0.00 | 0.00 | 0.00 | 67 | 1020.0 |
| 20260903083953 | 59 | 263 | 2.0 | 5.0 | 0.00 | 0.00 | 0.00 | 67 | 1019.7 |
| 20260903083451 | 59 | 263 | 1.0 | 5.0 | 0.00 | 0.00 | 0.00 | 66 | 1019.7 |
| 20260903082932 | 59 | 263 | 2.0 | 5.0 | 0.00 | 0.00 | 0.00 | 66 | 1019.7 |
| 20260903081808 | 59 | 263 | 2.0 | 5.0 | 0.00 | 0.00 | 0.00 | 65 | 1019.6 |
| 20260903081305 | 59 | 263 | 2.0 | 5.0 | 0.00 | 0.00 | 0.00 | 65 | 1019.5 |
| 20260903080753 | 59 | 263 | 2.0 | 5.0 | 0.00 | 0.00 | 0.00 | 65 | 1019.5 |
| 20260903080251 | 60 | 263 | 2.0 | 4.0 | 0.00 | 0.00 | 0.00 | 64 | 1019.5 |
| 20260903075756 | 60 | 263 | 2.0 | 5.0 | 0.00 | 0.00 | 0.00 | 64 | 1019.4 |
| 20260903075306 | 60 | 263 | 2.0 | 5.0 | 0.00 | 0.00 | 0.00 | 63 | 1019.4 |
| 20260903074803 | 60 | 263 | 3.0 | 9.0 | 0.00 | 0.00 | 0.00 | 63 | 1019.4 |
| 20260903074251 | 60 | 263 | 3.0 | 9.0 | 0.00 | 0.00 | 0.00 | 63 | 1019.2 |
| 20260903073754 | 60 | 263 | 3.0 | 9.0 | 0.00 | 0.00 | 0.00 | 62 | 1019.2 |
| 20260903073236 | 60 | 263 | 3.0 | 9.0 | 0.00 | 0.00 | 0.00 | 62 | 1019.2 |
| 20260903072726 | 60 | 263 | 2.0 | 6.0 | 0.00 | 0.00 | 0.00 | 62 | 1019.1 |
| 20260903071624 | 60 | 263 | 3.0 | 9.0 | 0.00 | 0.00 | 0.00 | 62 | 1019.1 |
| 20260903071116 | 60 | 263 | 3.0 | 9.0 | 0.00 | 0.00 | 0.00 | 62 | 1019.2 |
| 20260903070623 | 60 | 263 | 4.0 | 9.0 | 0.00 | 0.00 | 0.00 | 61 | 1019.2 |
| 20260903070113 | 60 | 263 | 4.0 | 12.0 | 0.00 | 0.00 | 0.00 | 61 | 1019.2 |
| 20260903065622 | 60 | 263 | 3.0 | 12.0 | 0.00 | 0.00 | 0.00 | 62 | 1019.1 |
| 20260903064521 | 60 | 263 | 5.0 | 12.0 | 0.00 | 0.00 | 0.00 | 62 | 1019.1 |
| 20260903063411 | 60 | 263 | 4.0 | 12.0 | 0.00 | 0.00 | 0.00 | 62 | 1019.1 |
| 20260903062226 | 61 | 263 | 4.0 | 12.0 | 0.00 | 0.00 | 0.00 | 63 | 1019.1 |
| 20260903061058 | 61 | 263 | 4.0 | 11.0 | 0.00 | 0.00 | 0.00 | 65 | 1019.1 |
| 20260903060601 | 61 | 263 | 4.0 | 11.0 | 0.00 | 0.00 | 0.00 | 64 | 1019.1 |
| 20260903060056 | 61 | 263 | 3.0 | 7.0 | 0.00 | 0.00 | 0.00 | 64 | 1019.1 |
| 20260903055554 | 61 | 263 | 3.0 | 7.0 | 0.00 | 0.00 | 0.00 | 64 | 1019.1 |
| 20260903055100 | 61 | 263 | 3.0 | 10.0 | 0.00 | 0.00 | 0.00 | 64 | 1019.1 |
| 20260903054541 | 61 | 263 | 3.0 | 10.0 | 0.00 | 0.00 | 0.00 | 64 | 1019.1 |
| 20260903054030 | 61 | 263 | 3.0 | 10.0 | 0.00 | 0.00 | 0.00 | 64 | 1019.0 |
| 20260903053533 | 61 | 263 | 4.0 | 10.0 | 0.00 | 0.00 | 0.00 | 64 | 1019.0 |
| 20260903052403 | 61 | 263 | 4.0 | 10.0 | 0.00 | 0.00 | 0.00 | 68 | 1019.0 |
| 20260903051901 | 61 | 263 | 3.0 | 9.0 | 0.00 | 0.00 | 0.00 | 68 | 1019.0 |
| 20260903051350 | 61 | 263 | 3.0 | 11.0 | 0.00 | 0.00 | 0.00 | 69 | 1018.7 |
| 20260903050854 | 61 | 263 | 4.0 | 11.0 | 0.00 | 0.00 | 0.00 | 69 | 1018.7 |
| 20260903045712 | 61 | 263 | 4.0 | 13.0 | 0.00 | 0.00 | 0.00 | 69 | 1018.6 |
| 20260903045152 | 61 | 263 | 6.0 | 13.0 | 0.00 | 0.00 | 0.00 | 68 | 1018.6 |
| 20260903044657 | 61 | 263 | 5.0 | 12.0 | 0.00 | 0.00 | 0.00 | 67 | 1018.6 |
| 20260903044203 | 62 | 263 | 5.0 | 11.0 | 0.00 | 0.00 | 0.00 | 69 | 1018.5 |